LITUANICASAT-2 (42768 NORAD) Tracking and Keplerian Element Data

This shows tracking and keplerian element data for the satellite.

Feedback or suggestion? Click here.




ElementValue
Catalog42768
NameLITUANICASAT-2
Epoch Orbit5920
Epoch Day198.71758172
Epoch Year2018
RAAN257.6582
Inclination97.4004
Eccentricity0.001452
Argument of Perigee324.6525
Mean Anonmoly35.3747
Mean Motion15.21489092
Decay Rate1.601E-05
L11 42768U 17036D 18198.71758172 .00001601 00000-0 74125-4 0 9990
L22 42768 97.4004 257.6582 0014520 324.6525 35.3747 15.21489092 59203

Live tracking and technical data element details for LITUANICASAT-2 (NORAD 42768). LITUANICASAT-2 can be tracked NOW for your location showing map with azimuth and elevation plus other details from your city location.

Track the satellite on the map from your city or location and see movement details for azimuth, elevation, latitude, longitude, range, height, and movement on the map or in text.







IsCatalogInMostPopularTable: catalog: 42768, numindb: 85
Update: records affected: 1



GetName: 42768 LITUANICASAT-2

Hit Count: updated at: Thu, 19 Jul 2018 03:58:11 GMT